| time (UTC) | temp F | wind direction | speed knots | gust knots | rain 1hr in | rain 24hr in | rain mn in | humidity % | barometer mb |
| 20260906211513 | 65 | 333 | 0.9 | 3.5 | 0.00 | 0.04 | 0.04 | 77 | 1013.8 |
| 20260906210019 | 65 | 331 | 0.0 | 2.6 | 0.00 | 0.04 | 0.04 | 78 | 1013.7 |
| 20260906204512 | 65 | 336 | 0.0 | 1.7 | 0.00 | 0.04 | 0.04 | 77 | 1013.6 |
| 20260906203022 | 65 | 335 | 0.9 | 3.5 | 0.00 | 0.04 | 0.04 | 78 | 1013.5 |
| 20260906201511 | 65 | 62 | 0.0 | 1.7 | 0.00 | 0.04 | 0.04 | 80 | 1013.6 |
| 20260906200010 | 64 | 61 | 0.0 | 1.7 | 0.00 | 0.04 | 0.04 | 78 | 1013.7 |
| 20260906194510 | 64 | 71 | 1.7 | 3.5 | 0.00 | 0.04 | 0.04 | 79 | 1013.6 |
| 20260906193010 | 64 | 326 | 0.0 | 2.6 | 0.00 | 0.04 | 0.04 | 80 | 1013.8 |
| 20260906191510 | 63 | 96 | 0.0 | 0.9 | 0.00 | 0.04 | 0.04 | 83 | 1013.9 |
| 20260906190108 | 63 | 96 | 0.0 | 2.6 | 0.00 | 0.04 | 0.04 | 83 | 1013.8 |
| 20260906184508 | 63 | 76 | 0.0 | 1.7 | 0.00 | 0.04 | 0.04 | 83 | 1014.1 |
| 20260906183009 | 63 | 132 | 0.0 | 3.5 | 0.00 | 0.04 | 0.04 | 81 | 1014.3 |
| 20260906181506 | 64 | 188 | 0.0 | 2.6 | 0.00 | 0.04 | 0.04 | 83 | 1014.1 |
| 20260906180005 | 64 | 285 | 0.0 | 0.9 | 0.00 | 0.04 | 0.04 | 82 | 1014.0 |
| 20260906174510 | 65 | 300 | 0.0 | 4.3 | 0.00 | 0.04 | 0.04 | 77 | 1014.2 |
| 20260906173004 | 66 | 63 | 0.0 | 3.5 | 0.00 | 0.04 | 0.04 | 73 | 1014.0 |
| 20260906171502 | 66 | 342 | 0.9 | 6.1 | 0.00 | 0.04 | 0.04 | 76 | 1014.1 |
| 20260906170100 | 65 | 89 | 0.9 | 4.3 | 0.00 | 0.04 | 0.04 | 76 | 1014.1 |
| 20260906164558 | 64 | 180 | 0.0 | 7.0 | 0.00 | 0.04 | 0.04 | 77 | 1014.3 |
| 20260906163121 | 64 | 280 | 0.9 | 5.2 | 0.00 | 0.04 | 0.04 | 79 | 1014.5 |
| 20260906161556 | 64 | 94 | 1.7 | 7.0 | 0.00 | 0.04 | 0.04 | 77 | 1014.5 |
| 20260906160056 | 64 | 84 | 0.0 | 3.5 | 0.00 | 0.04 | 0.04 | 80 | 1014.6 |
| 20260906154556 | 64 | 109 | 0.0 | 2.6 | 0.00 | 0.04 | 0.04 | 81 | 1014.7 |
| 20260906153056 | 65 | 86 | 1.7 | 4.3 | 0.00 | 0.04 | 0.04 | 79 | 1014.7 |
| 20260906151551 | 64 | 111 | 0.9 | 5.2 | 0.00 | 0.04 | 0.04 | 81 | 1014.6 |
| 20260906150050 | 64 | 261 | 0.0 | 4.3 | 0.00 | 0.04 | 0.04 | 82 | 1014.7 |
| 20260906144548 | 63 | 180 | 0.0 | 3.5 | 0.00 | 0.04 | 0.04 | 84 | 1014.7 |
| 20260906143050 | 62 | 306 | 0.0 | 6.1 | 0.00 | 0.04 | 0.04 | 86 | 1014.7 |
| 20260906141541 | 61 | 193 | 0.0 | 1.7 | 0.00 | 0.04 | 0.04 | 87 | 1014.6 |
| 20260906140049 | 61 | 281 | 0.0 | 3.5 | 0.00 | 0.04 | 0.04 | 88 | 1014.7 |
| 20260906134542 | 61 | 277 | 0.0 | 4.3 | 0.00 | 0.04 | 0.04 | 88 | 1014.7 |
| 20260906133039 | 60 | 289 | 0.0 | 3.5 | 0.00 | 0.04 | 0.04 | 89 | 1014.6 |
| 20260906131538 | 60 | 312 | 0.0 | 3.5 | 0.00 | 0.04 | 0.04 | 90 | 1014.7 |
| 20260906130041 | 60 | 289 | 1.7 | 3.5 | 0.01 | 0.04 | 0.04 | 90 | 1014.5 |
| 20260906124538 | 60 | 311 | 2.6 | 7.0 | 0.01 | 0.04 | 0.04 | 90 | 1014.5 |
| 20260906123034 | 60 | 306 | 0.0 | 2.6 | 0.01 | 0.04 | 0.04 | 90 | 1014.5 |
| 20260906121533 | 59 | 307 | 1.7 | 3.5 | 0.01 | 0.04 | 0.04 | 90 | 1014.4 |
| 20260906120030 | 59 | 312 | 0.0 | 2.6 | 0.00 | 0.03 | 0.03 | 90 | 1014.2 |
| 20260906114530 | 59 | 350 | 0.0 | 1.7 | 0.00 | 0.03 | 0.03 | 90 | 1014.1 |
| 20260906113028 | 59 | 34 | 0.0 | 1.7 | 0.01 | 0.03 | 0.03 | 90 | 1014.0 |
| 20260906111526 | 59 | 110 | 0.0 | 0.0 | 0.02 | 0.03 | 0.03 | 89 | 1013.8 |
| 20260906110023 | 59 | 110 | 0.0 | 0.0 | 0.02 | 0.03 | 0.03 | 89 | 1013.5 |
| 20260906104524 | 59 | 110 | 0.0 | 0.0 | 0.03 | 0.03 | 0.03 | 89 | 1013.3 |
| 20260906103021 | 59 | 110 | 0.0 | 0.0 | 0.02 | 0.02 | 0.02 | 88 | 1013.3 |
| 20260906101519 | 59 | 110 | 0.0 | 0.9 | 0.01 | 0.01 | 0.01 | 88 | 1013.3 |
| 20260906100018 | 59 | 110 | 0.0 | 5.2 | 0.01 | 0.01 | 0.01 | 87 | 1013.2 |
| 20260906094517 | 60 | 58 | 0.0 | 2.6 | 0.00 | 0.00 | 0.00 | 87 | 1013.2 |
| 20260906093027 | 60 | 84 | 0.0 | 2.6 | 0.00 | 0.00 | 0.00 | 89 | 1012.8 |
| 20260906091509 | 61 | 56 | 0.0 | 0.9 | 0.00 | 0.00 | 0.00 | 90 | 1012.5 |
| 20260906090010 | 61 | 56 | 0.0 | 0.9 | 0.00 | 0.00 | 0.00 | 90 | 1012.3 |
| 20260906084513 | 61 | 56 | 0.0 | 0.9 | 0.00 | 0.00 | 0.00 | 90 | 1012.4 |
| 20260906083007 | 61 | 56 | 0.0 | 0.0 | 0.00 | 0.00 | 0.00 | 90 | 1012.1 |
| 20260906081507 | 61 | 56 | 0.0 | 0.9 | 0.00 | 0.00 | 0.00 | 90 | 1012.0 |
| 20260906080007 | 61 | 56 | 0.0 | 0.0 | 0.00 | 0.00 | 0.00 | 90 | 1012.0 |
| 20260906074506 | 60 | 56 | 0.0 | 0.9 | 0.00 | 0.00 | 0.00 | 90 | 1011.8 |
| 20260906073005 | 60 | 56 | 0.0 | 1.7 | 0.00 | 0.00 | 0.00 | 90 | 1011.8 |
| 20260906071504 | 60 | 56 | 0.0 | 0.9 | 0.00 | 0.00 | 0.00 | 89 | 1011.9 |
| 20260906070003 | 60 | 56 | 0.0 | 0.9 | 0.00 | 0.00 | 0.00 | 89 | 1012.0 |
| 20260906064503 | 60 | 56 | 0.0 | 0.0 | 0.00 | 0.00 | 0.00 | 89 | 1011.9 |
| 20260906063002 | 60 | 56 | 0.0 | 0.0 | 0.00 | 0.00 | 0.00 | 88 | 1011.9 |
| 20260906061501 | 60 | 56 | 0.0 | 0.0 | 0.00 | 0.00 | 0.00 | 88 | 1012.0 |
| 20260906060104 | 61 | 56 | 0.0 | 0.0 | 0.00 | 0.00 | 0.00 | 87 | 1012.0 |
| 20260906054558 | 61 | 56 | 0.0 | 0.9 | 0.00 | 0.00 | 0.00 | 87 | 1012.0 |
| 20260906053057 | 61 | 56 | 0.0 | 0.0 | 0.00 | 0.00 | 0.00 | 87 | 1012.2 |
| 20260906051558 | 61 | 56 | 0.0 | 0.0 | 0.00 | 0.00 | 0.00 | 86 | 1012.3 |
| 20260906050055 | 61 | 56 | 0.0 | 0.0 | 0.00 | 0.00 | 0.00 | 86 | 1012.3 |
| 20260906044553 | 61 | 56 | 0.0 | 0.0 | 0.00 | 0.00 | 0.00 | 85 | 1012.2 |
| 20260906043054 | 61 | 56 | 0.0 | 0.0 | 0.00 | 0.00 | 0.00 | 85 | 1012.1 |
| 20260906041551 | 62 | 56 | 0.0 | 0.0 | 0.00 | 0.00 | 0.00 | 85 | 1012.1 |
| 20260906040051 | 62 | 56 | 0.0 | 0.0 | 0.00 | 0.00 | 0.00 | 85 | 1012.1 |
| 20260906034549 | 62 | 56 | 0.0 | 0.0 | 0.00 | 0.00 | 0.00 | 85 | 1012.0 |
| 20260906033049 | 62 | 56 | 0.0 | 0.0 | 0.00 | 0.00 | 0.00 | 85 | 1011.9 |
| 20260906031549 | 62 | 56 | 0.0 | 0.0 | 0.00 | 0.00 | 0.00 | 84 | 1011.8 |
| 20260906030051 | 62 | 56 | 0.0 | 0.0 | 0.00 | 0.00 | 0.00 | 84 | 1011.9 |
| 20260906024548 | 62 | 56 | 0.0 | 0.0 | 0.00 | 0.00 | 0.00 | 84 | 1011.9 |
| 20260906023048 | 63 | 56 | 0.0 | 0.0 | 0.00 | 0.00 | 0.00 | 83 | 1011.8 |
| 20260906021553 | 63 | 56 | 0.0 | 0.0 | 0.00 | 0.00 | 0.00 | 83 | 1011.9 |
| 20260906020045 | 63 | 56 | 0.0 | 0.0 | 0.00 | 0.00 | 0.00 | 83 | 1011.9 |
| 20260906014548 | 63 | 56 | 0.0 | 0.0 | 0.00 | 0.00 | 0.00 | 83 | 1011.9 |
| 20260906013045 | 63 | 56 | 0.0 | 0.0 | 0.00 | 0.00 | 0.00 | 83 | 1012.0 |
| 20260906011551 | 63 | 56 | 0.0 | 1.7 | 0.00 | 0.00 | 0.00 | 83 | 1011.9 |
| 20260906010043 | 64 | 59 | 0.0 | 0.9 | 0.00 | 0.00 | 0.00 | 83 | 1011.9 |
| 20260906004543 | 64 | 59 | 0.0 | 0.0 | 0.00 | 0.00 | 0.00 | 82 | 1011.7 |
| 20260906003040 | 64 | 59 | 0.0 | 0.0 | 0.00 | 0.00 | 0.00 | 82 | 1011.5 |
| 20260906001539 | 64 | 59 | 0.0 | 0.0 | 0.00 | 0.00 | 0.00 | 81 | 1011.4 |
| 20260906000040 | 64 | 59 | 0.0 | 0.0 | 0.00 | 0.00 | 0.00 | 81 | 1011.1 |
| 20260905234536 | 64 | 59 | 0.0 | 0.0 | 0.00 | 0.00 | 0.00 | 80 | 1011.1 |
| 20260905233053 | 65 | 59 | 0.0 | 2.6 | 0.00 | 0.00 | 0.00 | 80 | 1011.0 |
| 20260905231548 | 65 | 59 | 0.0 | 0.9 | 0.00 | 0.00 | 0.00 | 79 | 1011.1 |
| 20260905230034 | 65 | 59 | 0.0 | 1.7 | 0.00 | 0.00 | 0.00 | 79 | 1011.0 |
| 20260905224541 | 66 | 58 | 0.9 | 4.3 | 0.00 | 0.00 | 0.00 | 79 | 1011.1 |
| 20260905223033 | 66 | 76 | 0.0 | 5.2 | 0.00 | 0.00 | 0.00 | 78 | 1011.0 |
| 20260905221537 | 67 | 103 | 0.9 | 6.1 | 0.00 | 0.00 | 0.00 | 77 | 1010.9 |
| 20260905220030 | 67 | 57 | 0.9 | 8.7 | 0.00 | 0.00 | 0.00 | 77 | 1010.8 |
| 20260905214527 | 68 | 69 | 3.5 | 7.8 | 0.00 | 0.00 | 0.00 | 77 | 1010.4 |
| 20260905213033 | 68 | 96 | 2.6 | 7.0 | 0.00 | 0.00 | 0.00 | 77 | 1010.2 |